Weather History for Cullman, AL

Change the Weather History Date:

Monday, March 11, 2013

  Actual Average (KHSV) Record (KHSV)
Temperature  
Mean Temperature 50 °F 52 °F  
Max Temperature 63 °F 63 °F 84 °F (1911)
Min Temperature 36 °F 41 °F 19 °F (1969)
Degree Days  
Heating Degree Days 16 13  
Month to date heating degree days 158  
Since 1 July heating degree days 2610  
Cooling Degree Days 0 0  
Month to date cooling degree days 0  
Year to date cooling degree days 1  
Moisture  
Dew Point 43 °F    
Average Humidity 84    
Maximum Humidity 98    
Minimum Humidity 50    
Precipitation  
Precipitation 1.35 in 0.17 in 3.76 in (1963)
Month to date precipitation 1.83  
Year to date precipitation 11.56  
Snow  
Snow 0.00 in - - ()
Month to date snowfall  
Since 1 July snowfall  
Snow Depth -    
Sea Level Pressure  
Sea Level Pressure 29.90 in    
Wind  
Wind Speed 10 mph (WSW)    
Max Wind Speed 20 mph    
Max Gust Speed 29 mph    
Visibility 8 miles    
Events Rain    
T = Trace of Precipitation, MM = Missing Value Source: NWS Daily Summary

Daily Weather History Graph

Daily Weather History Graph

Search for Another Location

Airport:

Trip Planner

Search our weather history database for the weather conditions in past years. The results will help you decide how hot, cold, wet, or windy it might be!

Date:

Astronomy

Mar. 11, 2013 Rise Set
Actual Time 7:02 AM CDT 6:52 PM CDT
Civil Twilight 6:37 AM CDT 7:17 PM CDT
Nautical Twilight 6:08 AM CDT 7:46 PM CDT
Astronomical Twilight 5:39 AM CDT 8:15 PM CDT
Moon 6:37 AM CDT (3/11) 7:01 PM CDT (3/11)
Length of Visible Light 12h 39m
Length of Day
11h 49m
Waning Crescent, 0% of the Moon is Illuminated
Mar 11
Waning Crescent
Mar 11
New
Mar 19
First Quarter
Mar 27
Full
Apr 2
Last Quarter

Hourly Weather History & Observations

Time (CDT) Temp. Windchill Dew Point Humidity Pressure Visibility Wind Dir Wind Speed Gust Speed Precip Events Conditions
12:15 AM 63.9 °F - 45.0 °F 50% 29.93 in 10.0 mi SSE 16.1 mph 27.6 mph N/A   Mostly Cloudy
12:35 AM 63.5 °F - 45.9 °F 53% 29.93 in 10.0 mi SSE 18.4 mph 28.8 mph N/A   Scattered Clouds
12:55 AM 63.3 °F - 47.1 °F 56% 29.93 in 10.0 mi SSE 18.4 mph 28.8 mph N/A   Mostly Cloudy
1:35 AM 62.6 °F - 46.4 °F 55% 29.90 in 10.0 mi SSE 15.0 mph 23.0 mph N/A   Clear
1:55 AM 62.6 °F - 46.4 °F 55% 29.91 in 10.0 mi SSE 15.0 mph 23.0 mph N/A   Mostly Cloudy
2:15 AM 62.4 °F - 46.0 °F 55% 29.91 in 10.0 mi South 16.1 mph 21.9 mph N/A   Mostly Cloudy
2:35 AM 62.2 °F - 45.1 °F 54% 29.89 in 10.0 mi South 12.7 mph 25.3 mph N/A   Overcast
2:55 AM 62.1 °F - 43.9 °F 51% 29.87 in 10.0 mi SSE 13.8 mph 19.6 mph N/A   Overcast
3:15 AM 61.7 °F - 43.5 °F 51% 29.87 in 10.0 mi South 19.6 mph 23.0 mph N/A   Overcast
3:35 AM 61.9 °F - 44.2 °F 52% 29.86 in 10.0 mi South 18.4 mph 24.2 mph N/A   Overcast
3:55 AM 59.4 °F - 48.0 °F 66% 29.88 in 7.0 mi South 13.8 mph 26.5 mph 0.03 in Rain Heavy Rain
4:15 AM 56.3 °F - 50.9 °F 82% 29.87 in 7.0 mi South 10.4 mph - 0.05 in Rain Heavy Rain
4:35 AM 55.4 °F - 51.8 °F 88% 29.89 in 7.0 mi South 10.4 mph - 0.11 in Rain Heavy Rain
5:15 AM 54.7 °F - 52.0 °F 91% 29.88 in 7.0 mi South 13.8 mph - 0.04 in Rain Heavy Rain
5:35 AM 54.3 °F - 51.8 °F 91% 29.84 in 7.0 mi SSE 10.4 mph 20.7 mph 0.12 in Rain Light Rain
5:55 AM 54.3 °F - 51.1 °F 89% 29.84 in 10.0 mi SSE 12.7 mph 20.7 mph 0.13 in Rain Light Rain
6:15 AM 53.6 °F - 50.7 °F 90% 29.84 in 7.0 mi SSE 12.7 mph 18.4 mph 0.02 in Rain Rain
6:35 AM 53.1 °F - 50.9 °F 92% 29.83 in 4.0 mi SSE 8.1 mph 17.3 mph 0.08 in Rain Heavy Rain
6:55 AM 52.7 °F - 50.9 °F 94% 29.83 in 5.0 mi South 10.4 mph - 0.18 in Rain Heavy Rain
7:15 AM 52.3 °F - 51.1 °F 95% 29.84 in 7.0 mi SSW 6.9 mph - 0.03 in Rain Rain
7:35 AM 52.2 °F - 51.4 °F 97% 29.85 in 5.0 mi SSW 4.6 mph - 0.10 in Rain Heavy Rain
7:55 AM 52.2 °F - 51.4 °F 97% 29.88 in 4.0 mi SW 5.8 mph - 0.19 in Rain Heavy Rain
8:15 AM 52.2 °F - 51.6 °F 98% 29.88 in 4.0 mi SW 5.8 mph - 0.05 in Rain Rain
8:35 AM 52.3 °F - 51.8 °F 98% 29.89 in 5.0 mi SSW 3.5 mph - 0.10 in Rain Rain
8:55 AM 52.3 °F - 51.8 °F 98% 29.89 in 4.0 mi WSW 5.8 mph - 0.14 in Rain Rain
9:15 AM 51.6 °F - 50.7 °F 97% 29.89 in 5.0 mi WSW 3.5 mph - 0.04 in Rain Heavy Rain
9:35 AM 50.9 °F - 50.0 °F 97% 29.90 in 3.0 mi Calm Calm - 0.10 in Rain Heavy Rain
9:55 AM 50.5 °F - 50.0 °F 98% 29.91 in 4.0 mi West 5.8 mph - 0.16 in Rain Heavy Rain
10:15 AM 50.0 °F - 49.3 °F 97% 29.90 in 3.0 mi Calm Calm - 0.09 in Rain Heavy Rain
10:35 AM 48.7 °F - 48.0 °F 97% 29.90 in 3.0 mi Calm Calm - 0.14 in Rain Rain
10:55 AM 48.4 °F - 47.8 °F 98% 29.88 in 10.0 mi NNW 4.6 mph - 0.16 in Rain Rain
11:15 AM 47.7 °F - 47.1 °F 98% 29.89 in 7.0 mi Calm Calm - 0.01 in Rain Rain
11:35 AM 47.8 °F - 47.1 °F 97% 29.90 in 5.0 mi Calm Calm - 0.04 in Rain Rain
11:55 AM 47.8 °F - 47.1 °F 97% 29.90 in 4.0 mi SW 3.5 mph - 0.08 in Rain Rain
12:15 PM 47.5 °F - 46.8 °F 97% 29.90 in 7.0 mi West 5.8 mph - 0.03 in Rain Rain
12:35 PM 47.3 °F - 46.8 °F 98% 29.90 in 5.0 mi West 5.8 mph - 0.07 in Rain Rain
12:55 PM 46.4 °F 42.9 °F 45.7 °F 97% 29.90 in 4.0 mi WSW 6.9 mph - 0.11 in Rain Heavy Rain
1:15 PM 44.6 °F 43.1 °F 43.5 °F 96% 29.88 in 5.0 mi West 3.5 mph - 0.03 in Rain Rain
1:35 PM 43.7 °F 42.1 °F 42.6 °F 96% 29.87 in 7.0 mi SSW 3.5 mph - 0.06 in Rain Light Rain
1:55 PM 43.5 °F 40.9 °F 42.3 °F 95% 29.87 in 10.0 mi SW 4.6 mph - 0.06 in   Mostly Cloudy
2:15 PM 43.7 °F 41.1 °F 42.3 °F 95% 29.88 in 10.0 mi WSW 4.6 mph - N/A   Overcast
2:35 PM 43.9 °F 39.9 °F 42.3 °F 94% 29.87 in 10.0 mi WSW 6.9 mph - N/A   Overcast
2:55 PM 44.4 °F 42.9 °F 41.9 °F 91% 29.87 in 10.0 mi West 3.5 mph - N/A   Overcast
3:15 PM 43.9 °F 39.9 °F 41.4 °F 91% 29.87 in 10.0 mi West 6.9 mph - N/A   Overcast
3:35 PM 44.6 °F 40.7 °F 40.8 °F 87% 29.88 in 10.0 mi WSW 6.9 mph - N/A   Overcast
3:55 PM 44.8 °F 41.0 °F 40.1 °F 84% 29.88 in 10.0 mi WNW 6.9 mph - N/A   Overcast
4:15 PM 45.1 °F 42.8 °F 40.3 °F 83% 29.88 in 10.0 mi WSW 4.6 mph - N/A   Overcast
4:35 PM 45.7 °F 43.4 °F 39.7 °F 80% 29.89 in 10.0 mi WSW 4.6 mph - N/A   Overcast
4:55 PM 45.5 °F 44.2 °F 39.6 °F 80% 29.88 in 10.0 mi NW 3.5 mph - N/A   Mostly Cloudy
5:15 PM 45.3 °F 42.3 °F 40.1 °F 82% 29.90 in 10.0 mi NW 5.8 mph - N/A   Overcast
5:35 PM 44.8 °F 41.6 °F 39.6 °F 82% 29.90 in 10.0 mi WNW 5.8 mph - N/A   Overcast
5:55 PM 44.6 °F 42.2 °F 39.2 °F 81% 29.90 in 10.0 mi WNW 4.6 mph - N/A   Overcast
6:15 PM 44.2 °F 41.0 °F 38.5 °F 80% 29.92 in 10.0 mi WNW 5.8 mph - N/A   Overcast
6:35 PM 43.7 °F - 38.1 °F 81% 29.92 in 10.0 mi Calm Calm - N/A   Mostly Cloudy
6:55 PM 43.2 °F - 37.2 °F 80% 29.92 in 10.0 mi Calm Calm - N/A   Mostly Cloudy
7:15 PM 41.7 °F - 36.5 °F 82% 29.93 in 10.0 mi Calm Calm - N/A   Scattered Clouds
7:35 PM 40.5 °F - 36.9 °F 87% 29.93 in 10.0 mi Calm Calm - N/A   Overcast
7:55 PM 39.9 °F - 36.9 °F 89% 29.94 in 10.0 mi Calm Calm - N/A   Overcast
8:15 PM 41.0 °F - 36.3 °F 83% 29.94 in 10.0 mi Calm Calm - N/A   Overcast
8:35 PM 41.4 °F - 36.9 °F 84% 29.95 in 10.0 mi Calm Calm - N/A   Overcast
8:55 PM 41.5 °F 36.4 °F 37.0 °F 84% 29.96 in 10.0 mi NW 8.1 mph - N/A   Overcast
9:15 PM 41.5 °F 38.6 °F 36.0 °F 81% 29.97 in 10.0 mi NW 4.6 mph - N/A   Overcast
9:35 PM 40.3 °F 34.4 °F 34.2 °F 79% 29.97 in 10.0 mi NW 9.2 mph - N/A   Scattered Clouds
9:55 PM 39.2 °F 33.6 °F 32.9 °F 78% 29.98 in 10.0 mi NNW 8.1 mph - N/A   Clear
10:15 PM 38.5 °F 31.1 °F 32.7 °F 80% 29.99 in 10.0 mi NNW 11.5 mph 16.1 mph N/A   Clear
10:35 PM 37.9 °F 33.5 °F 32.0 °F 79% 29.99 in 10.0 mi NNW 5.8 mph - N/A   Clear
10:55 PM 37.4 °F 32.8 °F 32.0 °F 81% 29.99 in 10.0 mi NW 5.8 mph - N/A   Clear
11:15 PM 36.7 °F 32.9 °F 32.0 °F 83% 29.99 in 10.0 mi NNW 4.6 mph - N/A   Clear
11:35 PM 36.3 °F 31.6 °F 32.0 °F 84% 29.99 in 10.0 mi NW 5.8 mph - N/A   Clear
11:55 PM 36.1 °F 33.5 °F 31.8 °F 84% 29.99 in 10.0 mi NW 3.5 mph - N/A   Clear